Location: Curicchi
(45.0167°N, 12.0500°E)
Time: 18:55:52
(UTC+00:00)

Cosmos 2058 - Pass Details

Date: 07 June 2020
Orbit: 561 x 584 km, 82.5° (Epoch: 02 July)

Event Time Altitude Azimuth Distance (km) Brightness Sun altitude
Exits shadow 00:50:47 19° 143° (SE) 1,408 4.6 -18.5°
Maximum altitude 00:53:07 33° 91° (E) 988 4.3 -18.3°
Drops below altitude 10° 00:56:55 10° 27° (NNE) 1,915 6.9 -18.0°
Sets 00:59:16 0° 18° (NNE) 2,820 8.1 -17.8°
